Location: Acheville
(50.3840°N, 2.8827°E)
Time: 01:00:36
(UTC+00:00)

FENGYUN 1C DEB - Pass Details

Date: 11 February 2023
Orbit: 634 x 940 km, 98.3° (Epoch: 28 March)

Event Time Altitude Azimuth Distance (km) Brightness Sun altitude
Rises 06:06:53 0° 19° (NNE) 2,954 ? -10.2°
Reaches altitude 10° 06:09:07 10° 25° (NNE) 2,053 ? -9.8°
Maximum altitude 06:13:26 49° 100° (E) 864 ? -9.1°
Drops below altitude 10° 06:17:56 10° 176° (S) 2,146 ? -8.4°
Sets 06:20:19 0° 181° (S) 3,102 ? -8.0°
